Regional Weather Roundup
Issued by NWS Boston, MA

Home | Current Version | Previous Version | Text Only | Print | Product List | Glossary On
Versions: 1 2 3 4 5 6 7 8 9 10 11 12 13 14 15 16 17 18 19 20 21 22 23 24 25 26 27 28 29 30 31 32 33 34 35 36 37 38 39 40 41 42 43 44 45 46 47 48 49 50
000
ASUS41 KBOX 292310
RWRBOX

REGIONAL WEATHER ROUNDUP
NATIONAL WEATHER SERVICE TAUNTON MA
600 PM EST THU JAN 29 2015

NOTE:  "FAIR" INDICATES FEW OR NO CLOUDS BELOW 12,000 FEET WITH NO
SIGNIFICANT WEATHER AND/OR OBSTRUCTIONS TO VISIBILITY.  THE FOLLOWING
OBSERVATION LOCATIONS DO NOT REPORT PRESENT WEATHER...PROVINCETOWN...
SMITHFIELD...BLOCK ISLAND...KEENE...AND OXFORD.

MAZALL-300000-
EASTERN MASSACHUSETTS

CITY           SKY/WX    TMP DP  RH WIND       PRES   REMARKS
BOSTON         MOCLDY    29  22  75 SE9       30.17F WCI  20
BEVERLY        CLEAR     26  18  71 CALM      30.16F
LAWRENCE       CLEAR     25  18  74 CALM      30.17F
BEDFORD        CLEAR     26  19  74 SE5       30.15S WCI  20
BLUE HILL        N/A     27  18  69 S10       30.12S WCI  17
NORWOOD        CLEAR     21  15  78 CALM      30.17S
MARSHFIELD     CLEAR     28  23  80 CALM      30.18F
PLYMOUTH       CLEAR     21  19  92 CALM      30.17S
TAUNTON        MIX PCPN  23  15  71 SW3       30.17S
NEW BEDFORD    CLEAR     26  18  71 SW3       30.17S
$$

MAZALL-300000-
CAPE COD AND THE ISLANDS

CITY           SKY/WX    TMP DP  RH WIND       PRES   REMARKS
FALMOUTH       FAIR      23  19  86 CALM      30.17S
HYANNIS        CLEAR     20  19  96 CALM      30.16F
CHATHAM        CLEAR     27  22  81 NW3       30.18F
PROVINCETOWN   CLEAR     25  19  80 CALM      30.18
NANTUCKET      CLEAR     27  22  81 CALM      30.17F
MARTHAS VNYRD  CLEAR     22  15  75 CALM      30.17F
$$

MAZALL-300000-
CENTRAL AND WESTERN MASSACHUSETTS

CITY           SKY/WX    TMP DP  RH WIND       PRES   REMARKS
WORCESTER      PTCLDY    27  14  58 SE8       30.09F WCI  19
FITCHBURG      PTCLDY    22  13  68 CALM      30.14S
ORANGE         CLOUDY    28   7  41 CALM      30.10F
SPRINGFIELD    CLOUDY    27   4  38 E2        30.11F
WESTFIELD      CLOUDY    29   5  36 SE3       30.11F
NORTH ADAMS    CLOUDY    32  -3  22 E15       30.05S WCI  22
PITTSFIELD     CLOUDY    29  -1  27 SE8       30.02S WCI  21
$$

RIZALL-300000-
RHODE ISLAND

CITY           SKY/WX    TMP DP  RH WIND       PRES   REMARKS
PROVIDENCE     MOCLDY    25  15  66 S6        30.17F WCI  18
NEWPORT        PTCLDY    26  18  71 CALM      30.17F
BLOCK ISLAND   PTCLDY    30  19  64 S6        30.16F WCI  24
SMITHFIELD     CLEAR     27  10  50 CALM      30.13F
WESTERLY       PTCLDY    29  22  75 S3        30.17F
$$

CTZALL-300000-
CONNECTICUT

CITY           SKY/WX    TMP DP  RH WIND       PRES   REMARKS
BRADLEY INTL   CLOUDY    29   8  41 SE6       30.11F WCI  23
HARTFORD       CLOUDY    30  14  51 S6        30.15F WCI  24
BRIDGEPORT     CLOUDY    31  21  66 S5        30.15F WCI  26
DANBURY        CLOUDY    28   9  44 SE8       30.11F WCI  20
GROTON         MOCLDY    30  24  78 SE7       30.16F WCI  23
NEW HAVEN      CLOUDY    32  23  69 S8        30.15F WCI  25
CHESTER        FAIR      30  23  74 SE3       30.14F
MERIDEN        CLOUDY    29  19  66 S6        30.15F WCI  23
WILLIMANTIC    MOCLDY    29  17  61 S7        30.15F WCI  22
OXFORD         CLOUDY    27   9  46 S9        30.11R WCI  17
$$

MEZ002-015-021-024-NHZ003-005-008-011-012-014-VTZ005-008-300000-
NORTHERN NEW ENGLAND

CITY           SKY/WX    TMP DP  RH WIND       PRES   REMARKS
PORTLAND ME    PTCLDY    22  14  71 CALM      30.17F
BANGOR ME      PTCLDY    12   2  64 CALM      30.16F
CONCORD NH     CLEAR     29   5  36 CALM      30.14S
MANCHESTER NH  MOCLDY    27  16  63 SE5       30.13F WCI  22
NASHUA NH      CLEAR     22  14  71 CALM      30.15F
PORTSMOUTH NH  PTCLDY    24  17  74 E2        30.15F
JAFFREY NH     PTCLDY    28   4  35 S7        30.08F WCI  21
KEENE NH       MOCLDY    27  12  54 CALM      30.10F
BURLINGTON VT  CLOUDY    30   3  31 S14       29.98S WCI  19
MT. WASHINGTON MOCLDY    12 -13  31 S46         N/A  WCI -13
$$

NYZ052-076-300000-
EASTERN NEW YORK

CITY           SKY/WX    TMP DP  RH WIND       PRES   REMARKS
ALBANY         CLOUDY    29   6  38 S12       30.05R WCI  19
NEW YORK CITY  CLOUDY    32  24  72 S10       30.14F WCI  24
$$

ANZALL-300000-
MARINE OBSERVATIONS

STATION/POSITION TIME  TEMP    WIND        PRES    VSBY  WAVE
                       AIR SEA DIR/SP/G                  HT/PER
                 (UTC) (F)     (DEG/KT/KT) (MB)    (MI)  (FT/S)
BOSTON BUOY      2250   32 40  140/  4/  6 1021.7F         3/ 7
BUZZARDS BAY     2200          210/  3/  4 1022.7F
NANTUCKET SOUND  NOT AVBL
MASS BAY-STELLWA 2204   29 41  120/  2/  2   N/A    1 7/8  3/11
ISLE OF SHOALS   2300   29        CALM     1020.9F
S OF BLOCK IS    2208      42                N/A           2/10
$$

......................KEY.........................
  SKY/WX - SKY CONDITION/PRESENT WEATHER
  TMP    - TEMPERATURE IN FAHRENHEIT
  DWPT   - DEWPOINT IN FAHRENHEIT
  RH     - RELATIVE HUMIDITY IN PERCENT
  WIND   - DIRECTION AND SPEED IN MPH
  PRES   - MEAN SEA LEVEL PRESSURE IN INCHES OF HG
  WCI    - WIND CHILL INDEX
  VSB    - VISIBILITY IN MILES
  HX     - HEAT INDEX
  TC     - TEMPERATURE IN CELSIUS
  VRB    - VARIABLE WIND DIRECTION
  N/A    - NOT AVAILABLE


USA.gov is the U.S. government's official web portal to all federal, state and local government web resources and services.